Taylorville, IL

11:22 AM CDT on August 24, 2016 (GMT -0500)
Taylorville Municipal

Weather History for KTAZ - September, 2013

Change the Weather History Date:

Monday, September 23, 2013

  Actual Average (KSPI) Record (KSPI)
Temperature  
Mean Temperature 64 °F 64 °F  
Max Temperature 78 °F 76 °F 93 °F (2007)
Min Temperature 50 °F 51 °F 32 °F (1995)
Degree Days  
Heating Degree Days 1 4  
Month to date heating degree days 40  
Since 1 July heating degree days 45  
Cooling Degree Days 0 3  
Month to date cooling degree days 113  
Year to date cooling degree days 1083  
Growing Degree Days 14 (Base 50)    
Moisture  
Dew Point 49 °F    
Average Humidity 64    
Maximum Humidity 94    
Minimum Humidity 30    
Precipitation  
Precipitation 0.00 in 0.09 in 1.38 in (1984)
Month to date precipitation 2.23  
Year to date precipitation 27.88  
Snow  
Snow 0.00 in 0.00 in 0.00 in ()
Month to date snowfall 0.0  
Since 1 July snowfall 0.0  
Since 1 September snowfall 0.0  
Snow Depth -    
Sea Level Pressure  
Sea Level Pressure 30.00 in    
Wind  
Wind Speed 6 mph (ESE)    
Max Wind Speed 12 mph    
Max Gust Speed 10 mph    
Visibility 10 miles    
Events      
T = Trace of Precipitation, MM = Missing Value Source: NWS Daily Summary

Daily Weather History Graph

Daily Weather History Graph

Search for Another Location

Airport or City:

Trip Planner

Search our weather history database for the weather conditions in past years. The results will help you decide how hot, cold, wet, or windy it might be!

Date:

Astronomy

Sep. 23, 2013 Rise Set
Actual Time 6:46 AM CDT 6:52 PM CDT
Civil Twilight 6:19 AM CDT 7:19 PM CDT
Nautical Twilight 5:47 AM CDT 7:50 PM CDT
Astronomical Twilight 5:15 AM CDT 8:22 PM CDT
Moon 9:25 PM CDT (9/23) 11:04 AM CDT (9/23)
Length of Visible Light 12h 59m
Length of Day
12h 06m
Waning Gibbous, 81% of the Moon is Illuminated
Sep 23
Waning Gibbous
Sep 26
Last Quarter
Oct 4
New
Oct 11
First Quarter
Oct 18
Full

Hourly Weather History & Observations

Time (CDT) Temp. Dew Point Humidity Pressure Visibility Wind Dir Wind Speed Gust Speed Precip Events Conditions
12:15 AM 55.4 °F 51.8 °F 88% 29.99 in 10.0 mi ESE 4.6 mph - N/A   Clear
12:35 AM 55.4 °F 51.8 °F 88% 29.99 in 10.0 mi ESE 4.6 mph - N/A   Clear
12:55 AM 55.4 °F 51.8 °F 88% 29.99 in 10.0 mi ESE 4.6 mph - N/A   Clear
1:15 AM 55.4 °F 51.8 °F 88% 30.00 in 10.0 mi ESE 4.6 mph - N/A   Clear
1:35 AM 55.4 °F 51.8 °F 88% 30.00 in 10.0 mi ESE 5.8 mph - N/A   Clear
1:55 AM 55.4 °F 51.8 °F 88% 30.00 in 10.0 mi East 5.8 mph - N/A   Clear
2:15 AM 53.6 °F 51.8 °F 94% 30.00 in 10.0 mi East 4.6 mph - N/A   Clear
2:35 AM 53.6 °F 51.8 °F 94% 29.99 in 10.0 mi East 6.9 mph - N/A   Clear
2:55 AM 53.6 °F 51.8 °F 94% 29.99 in 10.0 mi East 6.9 mph - N/A   Clear
3:15 AM 53.6 °F 50.0 °F 88% 29.99 in 10.0 mi East 5.8 mph - N/A   Clear
3:35 AM 53.6 °F 50.0 °F 88% 29.99 in 10.0 mi East 6.9 mph - N/A   Clear
3:55 AM 51.8 °F 50.0 °F 94% 30.00 in 10.0 mi East 4.6 mph - N/A   Clear
4:15 AM 51.8 °F 50.0 °F 94% 30.00 in 10.0 mi East 3.5 mph - N/A   Clear
4:35 AM 51.8 °F 48.2 °F 88% 30.00 in 10.0 mi East 3.5 mph - N/A   Clear
4:55 AM 51.8 °F 50.0 °F 94% 30.01 in 10.0 mi East 3.5 mph - N/A   Clear
5:15 AM 51.8 °F 50.0 °F 94% 30.01 in 10.0 mi East 4.6 mph - N/A   Clear
5:35 AM 51.8 °F 48.2 °F 88% 30.02 in 10.0 mi Calm Calm - N/A   Clear
5:55 AM 50.0 °F 48.2 °F 94% 30.02 in 10.0 mi Calm Calm - N/A   Clear
6:15 AM 50.0 °F 48.2 °F 94% 30.03 in 10.0 mi Calm Calm - N/A   Clear
6:35 AM 50.0 °F 48.2 °F 94% 30.04 in 10.0 mi East 3.5 mph - N/A   Clear
6:55 AM 50.0 °F 48.2 °F 94% 30.04 in 10.0 mi East 4.6 mph - N/A   Clear
7:15 AM 51.8 °F 50.0 °F 94% 30.05 in 10.0 mi East 5.8 mph - N/A   Clear
7:35 AM 53.6 °F 50.0 °F 88% 30.05 in 10.0 mi East 6.9 mph - N/A   Clear
7:55 AM 53.6 °F 51.8 °F 94% 30.05 in 10.0 mi ESE 6.9 mph - N/A   Clear
8:15 AM 55.4 °F 51.8 °F 88% 30.05 in 10.0 mi ESE 6.9 mph - N/A   Clear
8:35 AM 57.2 °F 51.8 °F 82% 30.05 in 10.0 mi ESE 8.1 mph - N/A   Clear
8:55 AM 60.8 °F 51.8 °F 72% 30.06 in 10.0 mi SE 6.9 mph - N/A   Clear
9:15 AM 62.6 °F 51.8 °F 68% 30.06 in 10.0 mi SE 6.9 mph - N/A   Clear
9:35 AM 64.4 °F 53.6 °F 68% 30.06 in 10.0 mi SE 6.9 mph - N/A   Clear
9:55 AM 66.2 °F 53.6 °F 64% 30.06 in 10.0 mi SE 5.8 mph - N/A   Clear
10:15 AM 69.8 °F 53.6 °F 56% 30.06 in 10.0 mi SE 9.2 mph - N/A   Clear
10:35 AM 69.8 °F 51.8 °F 53% 30.06 in 10.0 mi SE 8.1 mph - N/A   Clear
10:55 AM 71.6 °F 50.0 °F 46% 30.06 in 10.0 mi SSE 10.4 mph - N/A   Clear
11:15 AM 73.4 °F 50.0 °F 44% 30.06 in 10.0 mi SE 6.9 mph - N/A   Clear
11:35 AM 73.4 °F 48.2 °F 41% 30.05 in 10.0 mi SSE 9.2 mph - N/A   Clear
11:55 AM 73.4 °F 48.2 °F 41% 30.04 in 10.0 mi SE 5.8 mph 10.4 mph N/A   Clear
12:15 PM 73.4 °F 48.2 °F 41% 30.04 in 10.0 mi SE 6.9 mph - N/A   Clear
12:35 PM 75.2 °F 46.4 °F 36% 30.04 in 10.0 mi SE 10.4 mph - N/A   Clear
1:15 PM 75.2 °F 48.2 °F 38% 30.02 in 10.0 mi ESE 8.1 mph - N/A   Clear
1:35 PM 77.0 °F 48.2 °F 36% 30.02 in 10.0 mi ESE 10.4 mph - N/A   Clear
1:55 PM 78.8 °F 48.2 °F 34% 30.01 in 10.0 mi SE 5.8 mph - N/A   Clear
2:15 PM 78.8 °F 46.4 °F 32% 30.00 in 10.0 mi East 9.2 mph - N/A   Clear
2:35 PM 78.8 °F 48.2 °F 34% 30.00 in 10.0 mi SE 9.2 mph - N/A   Clear
2:55 PM 78.8 °F 46.4 °F 32% 29.99 in 10.0 mi ESE 10.4 mph - N/A   Clear
3:15 PM 78.8 °F 46.4 °F 32% 29.98 in 10.0 mi ESE 11.5 mph - N/A   Clear
3:35 PM 78.8 °F 46.4 °F 32% 29.98 in 10.0 mi East 8.1 mph - N/A   Clear
3:55 PM 78.8 °F 46.4 °F 32% 29.98 in 10.0 mi ESE 8.1 mph - N/A   Clear
4:15 PM 78.8 °F 44.6 °F 30% 29.97 in 10.0 mi East 8.1 mph - N/A   Clear
4:35 PM 78.8 °F 44.6 °F 30% 29.97 in 10.0 mi ESE 6.9 mph - N/A   Clear
4:55 PM 78.8 °F 46.4 °F 32% 29.97 in 10.0 mi ESE 8.1 mph - N/A   Clear
5:15 PM 77.0 °F 44.6 °F 32% 29.97 in 10.0 mi ESE 9.2 mph - N/A   Clear
5:35 PM 75.2 °F 44.6 °F 34% 29.97 in 10.0 mi ESE 6.9 mph - N/A   Clear
5:55 PM 75.2 °F 44.6 °F 34% 29.97 in 10.0 mi ESE 6.9 mph - N/A   Clear
6:15 PM 73.4 °F 46.4 °F 38% 29.97 in 10.0 mi ESE 4.6 mph - N/A   Clear
6:35 PM 69.8 °F 48.2 °F 46% 29.97 in 10.0 mi ESE 4.6 mph - N/A   Clear
6:55 PM 68.0 °F 48.2 °F 49% 29.97 in 10.0 mi ESE 4.6 mph - N/A   Clear
7:15 PM 66.2 °F 48.2 °F 52% 29.96 in 10.0 mi ESE 4.6 mph - N/A   Clear
7:35 PM 64.4 °F 48.2 °F 56% 29.97 in 10.0 mi ESE 5.8 mph - N/A   Clear
7:55 PM 64.4 °F 48.2 °F 56% 29.97 in 10.0 mi ESE 5.8 mph - N/A   Clear
8:15 PM 64.4 °F 48.2 °F 56% 29.97 in 10.0 mi ESE 6.9 mph - N/A   Clear
8:35 PM 64.4 °F 50.0 °F 59% 29.97 in 10.0 mi ESE 5.8 mph - N/A   Clear
8:55 PM 64.4 °F 50.0 °F 59% 29.98 in 10.0 mi ESE 6.9 mph - N/A   Clear
9:15 PM 64.4 °F 50.0 °F 59% 29.97 in 10.0 mi ESE 9.2 mph - N/A   Clear
9:35 PM 64.4 °F 50.0 °F 59% 29.97 in 10.0 mi ESE 9.2 mph - N/A   Clear
9:55 PM 62.6 °F 50.0 °F 63% 29.98 in 10.0 mi ESE 8.1 mph - N/A   Clear
10:15 PM 62.6 °F 51.8 °F 68% 29.98 in 10.0 mi ESE 8.1 mph - N/A   Clear
10:35 PM 60.8 °F 51.8 °F 72% 29.98 in 10.0 mi ESE 8.1 mph - N/A   Clear
10:55 PM 60.8 °F 51.8 °F 72% 29.98 in 10.0 mi ESE 8.1 mph - N/A   Clear
11:15 PM 59.0 °F 51.8 °F 77% 29.98 in 10.0 mi ESE 6.9 mph - N/A   Clear
11:35 PM 59.0 °F 51.8 °F 77% 29.98 in 10.0 mi SE 6.9 mph - N/A   Clear
11:55 PM 59.0 °F 51.8 °F 77% 29.98 in 10.0 mi SE 5.8 mph - N/A   Clear